Location: Franzen
(48.6167°N, 15.3833°E)
Time: 12:10:34
(UTC+00:00)

Cosmos 2237 Rocket - Pass Details

Date: 22 April 2021
Orbit: 836 x 848 km, 71.0° (Epoch: 16 May)

Event Time Altitude Azimuth Distance (km) Brightness Sun altitude
Rises 18:34:40 0° 333° (NNW) 3,405 6.3 -6.0°
Reaches altitude 10° 18:37:10 10° 337° (NNW) 2,465 5.5 -6.4°
Maximum altitude 18:42:46 61° 58° (ENE) 948 2.4 -7.2°
Drops below altitude 10° 18:48:19 10° 139° (SE) 2,445 4.0 -8.0°
Enters shadow 18:48:47 - 140° (SE) 2,618 4.2 -8.1°
